COSMOS 446

导读

COSMOS 446是苏联(CIS前身)于1971年10月13日08:00发射的航天器,隶属于苏联著名的"宇宙"(Kosmos/Cosmos)卫星系列。该系列自1962年起覆盖科学研究、军事侦察等多领域,苏联常以此命名掩盖任务属性。作为冷战时期航天活动的一员,它延续了苏联航天对近地空间探索与技术验证的传统,见证了早期航天事业的发展历程。

Basic Information
目录编号:
5549
目录名称:
COSMOS 446
国际标识:
1971-086C
轨道中心:
EARTH
卫星名称:
COSMOS 446
卫星全名:
--
卫星状态:
在轨 (已飞行19969 天)
发射日期:
1971-10-13 UTC
国别 :
俄罗斯(独联体) (CIS)
星等 :
--
Orbit Information
数据来源 国际轨道数据 AOE轨道数据
星历时间 2026-06-15T07:22:17+0800
6小时前
查看轨道信息
2026-06-15T04:00:00+0800
9小时前
查看轨道信息
半长轴 7824.028km 7824.026km
偏心率 0.0082895 0.0082903
轨道倾角 74.027° 74.027°
近地点辐角 101.679° 101.955°
升交点赤经 120.616° 120.805°
平近点角 259.358° 344.906°
近地点 1381.033km 1381.025km
远地点 1510.749km 1510.753km
周期 114.790分钟 114.790分钟
每日圈数 12.544612 12.544617
Detailed Information
使用方式:
暂无
2D Orbit Map
3D Orbit Map
Orbit Altitude Analysis Chart
Orbit Inclination Analysis Chart
Orbit Comprehensive Analysis Chart
View Comprehensive Chart